Location: Beneden-Haastrecht
(52.0012°N, 4.7557°E)
Time: 11:51:05
(UTC+00:00)

Cosmos 292 Rocket - Pass Details

Date: 24 October 2020
Orbit: 672 x 695 km, 74.0° (Epoch: 24 November)

Event Time Altitude Azimuth Distance (km) Brightness Sun altitude
Rises 18:03:02 0° 194° (SSW) 3,026 7.3 -15.3°
Reaches altitude 10° 18:05:20 10° 192° (SSW) 2,119 6.4 -15.7°
Maximum altitude 18:10:03 66° 110° (ESE) 753 3.7 -16.4°
Drops below altitude 10° 18:14:51 10° 30° (NNE) 2,150 6.1 -17.1°
Enters shadow 18:15:52 - 28° (NNE) 2,552 6.5 -17.3°
